World > North America > United States > New York > Pearl River

Hourly Pearl River, NY Regional Weather

Feedback E-mail the Weather

Quick WX

Pearl River, NY Weather Maps

°F °C°F °C
Pearl River Weather Map
UTC Time: 8/13/2022, 11:24
Your Time:

Pearl River, NY Regional Weather

Expires:202208131200;;022492
ASUS41 KALY 131110
RWRALY

NEW YORK STATE HOURLY WEATHER ROUNDUP
NATIONAL WEATHER SERVICE ALBANY NY
700 AM EDT SAT AUG 13 2022

NOTE: "FAIR" INDICATES FEW OR NO CLOUDS BELOW 12,000 FEET WITH NO
SIGNIFICANT WEATHER AND/OR NO OBSTRUCTIONS TO VISIBILITY.


NYZ032-033-038>043-046>054-057>066-NYZ062>081-082-084-131200-
EAST

  
CITY           SKY/WX    TMP DP  RH WIND       PRES   REMARKS
ALBANY         CLOUDY    61  50  67 NW6       30.15R                  
GLENS FALLS    MOSUNNY   51  50  96 CALM      30.15R                  
POUGHKEEPSIE   CLEAR     53  49  86 CALM      30.13R                  
NEWBURGH       PTCLDY    54  50  87 CALM      30.13R                  
WHITE PLAINS   CLEAR     62  53  72 N13       30.11R                  
ISLIP          PTCLDY    66  54  65 N10       30.07R                  
NEW YORK CITY  PTCLDY    67  50  54 N8        30.09R                  
CENTRAL PARK   CLEAR     66  51  58 VRB3      30.13R                  
$$


SKY/WX - Weather  TMP - Temperature  DP - Dew Point  RH - Humidity
WIND - Wind Direction/Speed PRES - Barometric Pressure VSB - Visibility
WCI - Wind Chill Index E13G22 Wind - East Wind 13 mph/Gusts of 22 mph

Trending Headlines

Pearl River Radar Loop



Pearl River Quick Facts


National Two Day Weather Forecast


E-mail the Pearl River Weather Forecast

Voice your opinion or tell us about page issues...